Location: 22
(39.7117°N, 89.5929°W)
Time: 19:38:33
(UTC-05:00)

Vanguard 3 - Pass Details

Date: 05 February 2023
Orbit: 508 x 3249 km, 33.4° (Epoch: 30 March)

Event Time Altitude Azimuth Distance (km) Brightness Sun altitude
Rises 23:29:50 0° 278° (W) 5,596 11.6 -64.2°
Reaches altitude 10° 23:33:18 10° 272° (W) 4,919 11.2 -64.5°
Enters shadow 23:34:17 13° 270° (W) 4,747 11.0 -64.6°
Maximum altitude 23:47:12 43° 208° (SSW) 3,809 - -65.4°
Drops below altitude 10° 00:04:57 10° 146° (SE) 6,155 - -65.9°
Sets 00:10:00 0° 140° (SE) 7,068 - -66.0°
